LHA5402 DTNH-EDDB

Flight info

Callsign LHA5402
Flight time N/A
Altitude 31000
Route VAXAL UM734 NIBEL M734 BETOT/N0385F180 L865 TAQ Z242 SOVAN L995 AMTEL Q58 LUMAV M726 LASGA/N0453F310 T202 ATGUP
Aircraft A319/M-SDE1E2FGIRWYZ/S

Departure

Time 2026-04-29 08:56
Airport Enfidha - Hammamet International Airport (DTNH)

Arrival

Time N/A
Airport Berlin Brandenburg Airport (EDDB)
Time Latitude Longitude Altitude Speed Heading
2026-04-29 08:36 36.08145 10.43953 11 ft 0 kts 342°
2026-04-29 08:47 36.08138 10.43956 11 ft 3 kts 342°
2026-04-29 08:47 36.08113 10.43966 11 ft 3 kts 342°
2026-04-29 08:48 36.08089 10.43977 11 ft 3 kts 331°
2026-04-29 08:48 36.08076 10.44002 12 ft 3 kts 274°
2026-04-29 08:48 36.08077 10.44014 12 ft 0 kts 255°
2026-04-29 08:51 36.08076 10.44013 12 ft 0 kts 256°
2026-04-29 08:51 36.08075 10.44008 12 ft 0 kts 256°
2026-04-29 08:51 36.08074 10.43999 12 ft 1 kts 253°
2026-04-29 08:51 36.08057 10.43967 13 ft 5 kts 222°
2026-04-29 08:52 36.08020 10.43944 16 ft 7 kts 194°
2026-04-29 08:52 36.07966 10.43935 17 ft 10 kts 185°
2026-04-29 08:52 36.07869 10.43933 14 ft 17 kts 179°
2026-04-29 08:52 36.07752 10.43876 14 ft 20 kts 257°
2026-04-29 08:53 36.07749 10.43701 21 ft 20 kts 272°
2026-04-29 08:53 36.07750 10.43507 19 ft 25 kts 269°
2026-04-29 08:53 36.07749 10.43267 12 ft 28 kts 270°
2026-04-29 08:53 36.07750 10.43035 13 ft 26 kts 271°
2026-04-29 08:54 36.07750 10.42817 17 ft 24 kts 270°
2026-04-29 08:54 36.07753 10.42616 17 ft 23 kts 270°
2026-04-29 08:54 36.07752 10.42431 17 ft 18 kts 269°
2026-04-29 08:54 36.07749 10.42277 17 ft 16 kts 265°
2026-04-29 08:55 36.07658 10.42215 15 ft 18 kts 166°
2026-04-29 08:55 36.07585 10.42331 15 ft 18 kts 94°
2026-04-29 08:55 36.07584 10.42641 15 ft 69 kts 90°
2026-04-29 08:55 36.07582 10.43536 12 ft 136 kts 89°
2026-04-29 08:56 36.07561 10.44890 203 ft 171 kts 91°
2026-04-29 08:56 36.07493 10.46313 980 ft 166 kts 91°
2026-04-29 08:56 36.07520 10.47714 1735 ft 163 kts 69°
2026-04-29 08:56 36.08267 10.48738 2209 ft 176 kts 20°
2026-04-29 08:57 36.09539 10.48658 2607 ft 203 kts 335°
2026-04-29 08:57 36.10759 10.47641 3146 ft 222 kts 327°
2026-04-29 08:57 36.12077 10.46550 3681 ft 239 kts 332°
2026-04-29 08:57 36.13633 10.45697 4207 ft 254 kts 351°
2026-04-29 08:58 36.15390 10.45764 4995 ft 257 kts 12°
2026-04-29 08:58 36.17117 10.46287 5929 ft 258 kts 15°
2026-04-29 08:58 36.18839 10.46880 6799 ft 261 kts 15°
2026-04-29 08:58 36.20580 10.47472 7647 ft 264 kts 14°
2026-04-29 08:59 36.22332 10.48048 8474 ft 266 kts 13°
2026-04-29 08:59 36.24126 10.48627 9292 ft 269 kts 13°
2026-04-29 08:59 36.25945 10.49207 10090 ft 273 kts 12°
2026-04-29 08:59 36.27781 10.49789 10697 ft 283 kts 12°
2026-04-29 09:00 36.29754 10.50405 11065 ft 301 kts 11°
2026-04-29 09:00 36.31849 10.51049 11392 ft 319 kts 11°
2026-04-29 09:00 36.34044 10.51724 11713 ft 336 kts 11°
2026-04-29 09:00 36.36343 10.52435 12283 ft 344 kts 11°
2026-04-29 09:01 36.38647 10.53149 13010 ft 347 kts 11°
2026-04-29 09:01 36.40995 10.53877 13720 ft 349 kts 11°
2026-04-29 09:01 36.43353 10.54608 14397 ft 352 kts 11°
2026-04-29 09:01 36.45732 10.55346 15056 ft 355 kts 11°
2026-04-29 09:02 36.48132 10.56091 15698 ft 358 kts 11°
2026-04-29 09:02 36.50532 10.56836 16318 ft 361 kts 11°
2026-04-29 09:02 36.52978 10.57596 16927 ft 364 kts 11°
2026-04-29 09:02 36.55404 10.58351 17511 ft 366 kts 11°
2026-04-29 09:03 36.57894 10.59125 18088 ft 369 kts 11°
2026-04-29 09:03 36.60391 10.59903 18642 ft 372 kts 11°
2026-04-29 09:03 36.62881 10.60679 19174 ft 374 kts 11°
2026-04-29 09:03 36.65398 10.61464 19695 ft 377 kts 11°
2026-04-29 09:04 36.67943 10.62258 20206 ft 379 kts 11°
2026-04-29 09:04 36.70507 10.63059 20703 ft 382 kts 11°
2026-04-29 09:04 36.73081 10.63864 21177 ft 384 kts 11°
2026-04-29 09:04 36.75686 10.64678 21606 ft 388 kts 11°
2026-04-29 09:05 36.78281 10.65490 22047 ft 390 kts 12°
2026-04-29 09:05 36.80925 10.66318 22497 ft 393 kts 12°
2026-04-29 09:05 36.83572 10.67146 22933 ft 395 kts 12°
2026-04-29 09:05 36.86240 10.67982 23361 ft 397 kts 12°
2026-04-29 09:06 36.88914 10.68821 23776 ft 399 kts 12°
2026-04-29 09:06 36.91598 10.69664 24175 ft 401 kts 12°
2026-04-29 09:06 36.94300 10.70513 24566 ft 403 kts 12°
2026-04-29 09:06 36.97029 10.71371 24954 ft 405 kts 12°
2026-04-29 09:07 36.99748 10.72228 25339 ft 407 kts 12°
2026-04-29 09:07 37.02471 10.73088 25719 ft 408 kts 11°
2026-04-29 09:07 37.05217 10.73956 26093 ft 410 kts 11°
2026-04-29 09:07 37.08011 10.74838 26454 ft 411 kts 11°
2026-04-29 09:08 37.10769 10.75710 26799 ft 413 kts 11°
2026-04-29 09:08 37.13555 10.76590 27148 ft 415 kts 10°
2026-04-29 09:08 37.16351 10.77472 27482 ft 417 kts 10°
2026-04-29 09:08 37.19151 10.78356 27859 ft 417 kts 10°
2026-04-29 09:09 37.21916 10.79231 28319 ft 415 kts 10°
2026-04-29 09:09 37.24706 10.80115 28788 ft 414 kts 10°
2026-04-29 09:09 37.27477 10.80994 29233 ft 412 kts 10°
2026-04-29 09:09 37.30250 10.81874 29637 ft 411 kts 10°
2026-04-29 09:10 37.33014 10.82752 29977 ft 412 kts 10°
2026-04-29 09:10 37.35783 10.83631 30291 ft 413 kts 10°
2026-04-29 09:10 37.38550 10.84511 30603 ft 414 kts 10°
2026-04-29 09:10 37.41363 10.85407 30905 ft 414 kts 10°
2026-04-29 09:11 37.44153 10.86295 31053 ft 416 kts 10°
2026-04-29 09:11 37.49701 10.88061 31060 ft 415 kts 10°
2026-04-29 09:12 37.55283 10.89841 31061 ft 414 kts 10°
2026-04-29 09:12 37.60870 10.91625 31062 ft 413 kts 10°
2026-04-29 09:13 37.66418 10.93401 31061 ft 413 kts 10°
2026-04-29 09:13 37.71959 10.95177 31062 ft 412 kts 10°
2026-04-29 09:14 37.77488 10.96705 31062 ft 410 kts
2026-04-29 09:14 37.83080 10.98070 31061 ft 409 kts
2026-04-29 09:15 37.88619 10.99425 31061 ft 409 kts
2026-04-29 09:15 37.94189 11.00793 31061 ft 408 kts
2026-04-29 09:16 37.99755 11.02163 31061 ft 407 kts
2026-04-29 09:16 38.05260 11.03522 31061 ft 407 kts
2026-04-29 09:17 38.10822 11.04897 31063 ft 406 kts
2026-04-29 09:17 38.16360 11.06269 31062 ft 406 kts
2026-04-29 09:18 38.21880 11.07638 31061 ft 406 kts
2026-04-29 09:18 38.27390 11.09008 31061 ft 406 kts
2026-04-29 09:19 38.32942 11.10390 31061 ft 406 kts
2026-04-29 09:19 38.38456 11.11764 31061 ft 406 kts
2026-04-29 09:20 38.43814 11.13102 31061 ft 406 kts
2026-04-29 09:20 38.49314 11.14477 31061 ft 406 kts
2026-04-29 09:21 38.54858 11.15866 31061 ft 406 kts
2026-04-29 09:21 38.60377 11.17250 31060 ft 406 kts
2026-04-29 09:22 38.65880 11.18632 31055 ft 406 kts
2026-04-29 09:22 38.71396 11.20020 31047 ft 406 kts
2026-04-29 09:23 38.76919 11.21412 31041 ft 406 kts
2026-04-29 09:23 38.82441 11.22805 31041 ft 406 kts
2026-04-29 09:24 38.87951 11.24198 31043 ft 406 kts
2026-04-29 09:24 38.93464 11.25596 31046 ft 406 kts
2026-04-29 09:25 38.99000 11.27001 31050 ft 408 kts
2026-04-29 09:25 39.04553 11.28412 31055 ft 409 kts
2026-04-29 09:26 39.10170 11.29838 31059 ft 410 kts
2026-04-29 09:26 39.15734 11.31254 31061 ft 409 kts
2026-04-29 09:27 39.21285 11.32669 31061 ft 409 kts
2026-04-29 09:27 39.26844 11.34090 31061 ft 410 kts
2026-04-29 09:28 39.32439 11.35523 31061 ft 410 kts
2026-04-29 09:28 39.38000 11.36949 31061 ft 410 kts
2026-04-29 09:29 39.43575 11.38380 31059 ft 410 kts
2026-04-29 09:29 39.51942 11.40535 31049 ft 410 kts
2026-04-29 09:30 39.57512 11.41972 31043 ft 410 kts
2026-04-29 09:30 39.63067 11.43407 31041 ft 410 kts
2026-04-29 09:31 39.68657 11.44853 31042 ft 410 kts
2026-04-29 09:31 39.74228 11.46298 31044 ft 410 kts
2026-04-29 09:32 39.79781 11.47739 31047 ft 410 kts
2026-04-29 09:32 39.85341 11.49185 31050 ft 410 kts
2026-04-29 09:33 39.90945 11.50644 31054 ft 410 kts
2026-04-29 09:33 39.96497 11.52093 31057 ft 410 kts
2026-04-29 09:34 40.02061 11.53547 31060 ft 409 kts
2026-04-29 09:34 40.07626 11.55005 31061 ft 410 kts
2026-04-29 09:35 40.13213 11.56471 31062 ft 410 kts
2026-04-29 09:35 40.18782 11.57934 31062 ft 410 kts
2026-04-29 09:36 40.24366 11.59406 31061 ft 410 kts
2026-04-29 09:36 40.29919 11.60870 31061 ft 409 kts
2026-04-29 09:37 40.35500 11.62008 31061 ft 407 kts
2026-04-29 09:37 40.41139 11.62285 31061 ft 404 kts 355°
2026-04-29 09:38 40.46715 11.61710 31061 ft 403 kts 351°
2026-04-29 09:38 40.52242 11.60774 31061 ft 403 kts 350°
2026-04-29 09:39 40.57795 11.59810 31061 ft 404 kts 350°
2026-04-29 09:39 40.63343 11.58842 31061 ft 404 kts 350°
2026-04-29 09:40 40.68885 11.57875 31061 ft 404 kts 350°
2026-04-29 09:40 40.74448 11.56901 31061 ft 404 kts 350°
2026-04-29 09:41 40.80017 11.55925 31061 ft 404 kts 350°
2026-04-29 09:41 40.85559 11.54951 31061 ft 404 kts 350°
2026-04-29 09:42 40.91090 11.53978 31061 ft 404 kts 350°
2026-04-29 09:42 40.96640 11.53000 31061 ft 404 kts 350°
2026-04-29 09:43 41.02202 11.52019 31061 ft 404 kts 350°
2026-04-29 09:43 41.07750 11.51040 31061 ft 404 kts 350°
2026-04-29 09:44 41.13325 11.50052 31062 ft 405 kts 349°
2026-04-29 09:44 41.18897 11.49062 31061 ft 405 kts 349°
2026-04-29 09:45 41.24458 11.48072 31061 ft 405 kts 349°
2026-04-29 09:45 41.30003 11.47085 31061 ft 405 kts 349°
2026-04-29 09:46 41.35554 11.46096 31061 ft 405 kts 349°
2026-04-29 09:46 41.41132 11.45102 31061 ft 404 kts 350°
2026-04-29 09:47 41.46688 11.44110 31061 ft 405 kts 349°
2026-04-29 09:47 41.52242 11.43248 31061 ft 406 kts 354°
2026-04-29 09:48 41.57904 11.43475 31061 ft 410 kts
2026-04-29 09:48 41.63508 11.45022 31061 ft 416 kts 12°
2026-04-29 09:49 41.68946 11.47533 31061 ft 416 kts 14°
2026-04-29 09:49 41.74369 11.50167 31061 ft 415 kts 14°
2026-04-29 09:50 41.79784 11.52803 31061 ft 415 kts 14°
2026-04-29 09:50 41.85170 11.55428 31061 ft 415 kts 14°
2026-04-29 09:51 41.90588 11.58071 31061 ft 415 kts 14°
2026-04-29 09:51 41.96011 11.60722 31061 ft 415 kts 14°
2026-04-29 09:52 42.01421 11.63372 31061 ft 415 kts 14°
2026-04-29 09:52 42.06827 11.66024 31060 ft 415 kts 15°
2026-04-29 09:53 42.12235 11.68683 31062 ft 415 kts 15°
2026-04-29 09:53 42.17613 11.71332 31061 ft 415 kts 15°
2026-04-29 09:54 42.23014 11.74152 31060 ft 417 kts 18°
2026-04-29 09:54 42.28305 11.77287 31061 ft 417 kts 18°
2026-04-29 09:55 42.33606 11.80461 31061 ft 417 kts 18°
2026-04-29 09:55 42.38866 11.83612 31061 ft 417 kts 18°
2026-04-29 09:56 42.44215 11.86703 31061 ft 415 kts 15°
2026-04-29 09:56 42.49691 11.88786 31061 ft 410 kts
2026-04-29 09:57 42.55287 11.89677 31061 ft 406 kts 359°
2026-04-29 09:57 42.60902 11.89665 31061 ft 406 kts 356°
2026-04-29 09:58 42.66521 11.89540 31061 ft 406 kts 356°
2026-04-29 09:58 42.72161 11.89413 31061 ft 406 kts 356°
2026-04-29 09:59 42.77773 11.89169 31061 ft 404 kts 352°
2026-04-29 09:59 42.83271 11.87857 31061 ft 402 kts 343°
2026-04-29 10:00 42.88497 11.85319 31061 ft 401 kts 335°
2026-04-29 10:00 42.93440 11.81870 31062 ft 400 kts 332°
2026-04-29 10:01 42.98333 11.78296 31062 ft 399 kts 331°
2026-04-29 10:01 43.03194 11.74731 31061 ft 398 kts 331°
2026-04-29 10:02 43.08051 11.71162 31061 ft 397 kts 331°
2026-04-29 10:02 43.12901 11.67590 31060 ft 397 kts 331°
2026-04-29 10:03 43.17835 11.64173 31055 ft 398 kts 335°
2026-04-29 10:03 43.23049 11.61715 31052 ft 401 kts 343°
2026-04-29 10:04 43.28514 11.60348 31051 ft 404 kts 351°
2026-04-29 10:04 43.34126 11.59769 31053 ft 405 kts 352°
2026-04-29 10:05 43.39749 11.59272 31057 ft 405 kts 352°
2026-04-29 10:05 43.45333 11.58781 31060 ft 404 kts 352°
2026-04-29 10:06 43.50932 11.58288 31061 ft 404 kts 352°
2026-04-29 10:06 43.56491 11.57798 31061 ft 404 kts 352°
2026-04-29 10:07 43.62101 11.57302 31061 ft 404 kts 352°
2026-04-29 10:07 43.67689 11.56809 31061 ft 404 kts 352°
2026-04-29 10:08 43.73270 11.56315 31061 ft 404 kts 352°
2026-04-29 10:08 43.78891 11.55815 31061 ft 404 kts 352°
2026-04-29 10:09 43.84473 11.55316 31061 ft 404 kts 352°
2026-04-29 10:09 43.90066 11.54816 31061 ft 404 kts 352°
2026-04-29 10:10 43.95644 11.54318 31061 ft 404 kts 352°
2026-04-29 10:10 44.01254 11.54104 31061 ft 407 kts 357°
2026-04-29 10:11 44.06920 11.54527 31061 ft 408 kts 359°
2026-04-29 10:11 44.11207 11.54937 31063 ft 407 kts 359°
2026-04-29 10:12 44.16847 11.55475 31062 ft 407 kts 359°
2026-04-29 10:12 44.22444 11.56007 31061 ft 407 kts 359°
2026-04-29 10:13 44.28110 11.56543 31061 ft 407 kts 359°
2026-04-29 10:13 44.33708 11.57068 31061 ft 407 kts 359°
2026-04-29 10:14 44.39348 11.57600 31061 ft 407 kts 359°
2026-04-29 10:14 44.44963 11.58132 31061 ft 407 kts 359°
2026-04-29 10:15 44.50617 11.58671 31061 ft 407 kts 359°
2026-04-29 10:15 44.56230 11.59207 31061 ft 407 kts 359°
2026-04-29 10:16 44.61842 11.59744 31061 ft 407 kts 359°
2026-04-29 10:16 44.67470 11.60285 31061 ft 407 kts 359°
2026-04-29 10:17 44.73119 11.60829 31061 ft 407 kts 359°
2026-04-29 10:17 44.78715 11.61270 31061 ft 405 kts 356°
2026-04-29 10:18 44.84331 11.61025 31061 ft 402 kts 352°
2026-04-29 10:18 44.89848 11.60164 31061 ft 402 kts 349°
2026-04-29 10:19 44.95408 11.59198 31061 ft 402 kts 349°
2026-04-29 10:19 45.00932 11.58238 31061 ft 402 kts 349°
2026-04-29 10:20 45.06447 11.57279 31063 ft 403 kts 348°
2026-04-29 10:20 45.12003 11.56309 31066 ft 403 kts 348°
2026-04-29 10:21 45.17567 11.55331 31066 ft 404 kts 348°
2026-04-29 10:21 45.23157 11.54346 31066 ft 404 kts 348°
2026-04-29 10:22 45.28679 11.53376 31066 ft 404 kts 348°
2026-04-29 10:22 45.34274 11.52392 31065 ft 404 kts 348°
2026-04-29 10:23 45.39825 11.51412 31064 ft 404 kts 348°
2026-04-29 10:23 45.45379 11.50429 31063 ft 404 kts 348°
2026-04-29 10:24 45.50956 11.49441 31063 ft 404 kts 348°
2026-04-29 10:24 45.56510 11.48459 31063 ft 404 kts 348°
2026-04-29 10:25 45.62054 11.47476 31063 ft 404 kts 348°
2026-04-29 10:25 45.67646 11.46477 31064 ft 404 kts 348°
2026-04-29 10:26 45.73169 11.45484 31068 ft 404 kts 348°
2026-04-29 10:26 45.78761 11.44480 31074 ft 404 kts 348°
2026-04-29 10:27 45.87075 11.42985 31091 ft 404 kts 348°
2026-04-29 10:28 45.92627 11.41986 31108 ft 403 kts 348°
2026-04-29 10:28 45.98164 11.40987 31125 ft 403 kts 348°
2026-04-29 10:29 46.03701 11.39985 31135 ft 402 kts 348°
2026-04-29 10:29 46.09244 11.38980 31141 ft 402 kts 348°
2026-04-29 10:30 46.14805 11.37974 31144 ft 402 kts 348°
2026-04-29 10:30 46.20339 11.36972 31144 ft 402 kts 348°
2026-04-29 10:31 46.25851 11.35969 31144 ft 402 kts 348°
2026-04-29 10:31 46.31393 11.34958 31144 ft 402 kts 347°
2026-04-29 10:32 46.36954 11.33942 31144 ft 402 kts 347°
2026-04-29 10:32 46.42515 11.32964 31144 ft 403 kts 349°
2026-04-29 10:33 46.48090 11.32591 31144 ft 407 kts 354°
2026-04-29 10:33 46.53744 11.32959 31144 ft 408 kts 357°
2026-04-29 10:34 46.59406 11.33540 31144 ft 408 kts 358°
2026-04-29 10:34 46.65054 11.34127 31144 ft 408 kts 358°
2026-04-29 10:35 46.70321 11.34674 31144 ft 408 kts 358°
2026-04-29 10:35 46.75967 11.35261 31144 ft 408 kts 358°
2026-04-29 10:36 46.81647 11.35860 31148 ft 409 kts 358°
2026-04-29 10:36 46.87278 11.36479 31154 ft 408 kts 358°
2026-04-29 10:37 46.92916 11.37106 31161 ft 408 kts 357°
2026-04-29 10:37 46.98582 11.37732 31166 ft 407 kts 356°
2026-04-29 10:38 47.04111 11.38290 31168 ft 407 kts 355°
2026-04-29 10:38 47.09759 11.38847 31170 ft 407 kts 355°
2026-04-29 10:39 47.14213 11.39291 31171 ft 407 kts 355°
2026-04-29 10:39 47.19841 11.39858 31170 ft 407 kts 355°
2026-04-29 10:40 47.25440 11.40186 31170 ft 403 kts 352°
2026-04-29 10:40 47.31037 11.40206 31170 ft 403 kts 352°
2026-04-29 10:41 47.36641 11.40216 31170 ft 403 kts 352°
2026-04-29 10:41 47.42207 11.40193 31170 ft 403 kts 351°
2026-04-29 10:42 47.47796 11.40122 31170 ft 403 kts 351°
2026-04-29 10:42 47.53383 11.40058 31170 ft 403 kts 351°
2026-04-29 10:43 47.58953 11.39998 31171 ft 403 kts 351°
2026-04-29 10:43 47.64529 11.39639 31174 ft 399 kts 347°
2026-04-29 10:44 47.69757 11.38947 31178 ft 399 kts 347°
2026-04-29 10:44 47.75181 11.38209 31183 ft 399 kts 347°
2026-04-29 10:45 47.80713 11.37458 31188 ft 399 kts 347°
2026-04-29 10:45 47.86187 11.36723 31192 ft 400 kts 348°
2026-04-29 10:46 47.91755 11.36234 31196 ft 401 kts 349°
2026-04-29 10:46 47.97308 11.35793 31198 ft 401 kts 349°
2026-04-29 10:47 48.02766 11.35335 31198 ft 401 kts 348°
2026-04-29 10:47 48.08272 11.34687 31197 ft 398 kts 346°
2026-04-29 10:48 48.13761 11.33642 31199 ft 397 kts 345°
2026-04-29 10:48 48.19222 11.32574 31198 ft 397 kts 345°
2026-04-29 10:49 48.24673 11.31510 31198 ft 397 kts 345°
2026-04-29 10:49 48.30155 11.30541 31200 ft 399 kts 346°
2026-04-29 10:50 48.35429 11.29726 31200 ft 399 kts 346°
2026-04-29 10:50 48.40810 11.28887 31203 ft 398 kts 346°
2026-04-29 10:51 48.46321 11.28020 31208 ft 399 kts 346°
2026-04-29 10:51 48.51784 11.27155 31215 ft 398 kts 346°
2026-04-29 10:52 48.57307 11.26280 31220 ft 398 kts 346°
2026-04-29 10:52 48.62788 11.25408 31222 ft 398 kts 346°
2026-04-29 10:53 48.68182 11.24544 31224 ft 398 kts 346°
2026-04-29 10:53 48.73665 11.23663 31224 ft 398 kts 346°
2026-04-29 10:54 48.79154 11.22782 31224 ft 398 kts 346°
2026-04-29 10:54 48.84658 11.22050 31224 ft 401 kts 349°
2026-04-29 10:55 48.90257 11.21944 31224 ft 404 kts 352°
2026-04-29 10:55 48.95850 11.21981 31224 ft 403 kts 352°
2026-04-29 10:56 49.01456 11.22023 31224 ft 404 kts 351°
2026-04-29 10:56 49.07052 11.22060 31225 ft 406 kts 351°
2026-04-29 10:57 49.12707 11.22094 31228 ft 409 kts 350°
2026-04-29 10:57 49.18354 11.22122 31231 ft 408 kts 350°
2026-04-29 10:58 49.24041 11.22156 31236 ft 408 kts 350°
2026-04-29 10:58 49.29670 11.22199 31241 ft 408 kts 350°
2026-04-29 10:59 49.35355 11.22246 31247 ft 408 kts 350°
2026-04-29 10:59 49.41009 11.22294 31250 ft 408 kts 350°
2026-04-29 11:00 49.46657 11.22342 31252 ft 408 kts 350°
2026-04-29 11:00 49.52313 11.22390 31252 ft 408 kts 350°
2026-04-29 11:01 49.57961 11.22424 31252 ft 407 kts 350°
2026-04-29 11:01 49.63588 11.22430 31252 ft 408 kts 350°
2026-04-29 11:02 49.69252 11.22440 31252 ft 407 kts 350°
2026-04-29 11:02 49.74912 11.22452 31252 ft 407 kts 350°
2026-04-29 11:03 49.80540 11.22471 31252 ft 408 kts 350°
2026-04-29 11:03 49.86215 11.22504 31252 ft 408 kts 350°
2026-04-29 11:04 49.91863 11.22538 31252 ft 408 kts 350°
2026-04-29 11:04 49.97510 11.22573 31254 ft 408 kts 350°
2026-04-29 11:05 50.03144 11.22608 31260 ft 407 kts 350°
2026-04-29 11:05 50.08783 11.22642 31271 ft 407 kts 350°
2026-04-29 11:06 50.13898 11.22669 31282 ft 407 kts 350°
2026-04-29 11:06 50.19539 11.22702 31289 ft 407 kts 350°
2026-04-29 11:07 50.25177 11.22737 31292 ft 407 kts 350°
2026-04-29 11:07 50.30821 11.23087 31293 ft 417 kts 358°
2026-04-29 11:07 50.33696 11.24086 31296 ft 429 kts
2026-04-29 11:08 50.36409 11.25696 31299 ft 441 kts 14°
2026-04-29 11:08 50.38861 11.27809 31302 ft 452 kts 22°
2026-04-29 11:08 50.41415 11.30859 31304 ft 465 kts 31°
2026-04-29 11:09 50.46074 11.37944 31309 ft 469 kts 35°
2026-04-29 11:09 50.50590 11.45036 31314 ft 459 kts 34°
2026-04-29 11:10 50.55172 11.51918 31315 ft 454 kts 30°
2026-04-29 11:10 50.60074 11.58009 31312 ft 446 kts 25°
2026-04-29 11:11 50.65090 11.63696 31310 ft 447 kts 24°
2026-04-29 11:11 50.68888 11.68022 31307 ft 448 kts 25°
2026-04-29 11:12 50.73920 11.73793 31308 ft 448 kts 25°
2026-04-29 11:12 50.78934 11.79567 31309 ft 449 kts 25°
2026-04-29 11:13 50.83951 11.85366 31312 ft 448 kts 25°
2026-04-29 11:13 50.88952 11.91162 31322 ft 448 kts 25°
2026-04-29 11:14 50.94011 11.97037 31341 ft 452 kts 25°
2026-04-29 11:14 50.99028 12.02871 31364 ft 458 kts 25°
2026-04-29 11:15 51.04192 12.08897 31381 ft 465 kts 25°
2026-04-29 11:15 51.09365 12.14967 31394 ft 465 kts 25°
2026-04-29 11:16 51.11081 12.16984 31397 ft 465 kts 25°
2026-04-29 11:16 51.13602 12.19950 31400 ft 464 kts 25°
2026-04-29 11:17 51.18787 12.26055 31231 ft 464 kts 25°
2026-04-29 11:17 51.21355 12.29085 30982 ft 463 kts 25°
2026-04-29 11:17 51.23931 12.32135 30731 ft 462 kts 25°
2026-04-29 11:17 51.26519 12.35203 30479 ft 461 kts 25°
2026-04-29 11:18 51.29075 12.38297 30227 ft 463 kts 28°
2026-04-29 11:18 51.31543 12.41620 29977 ft 469 kts 32°
2026-04-29 11:18 51.33900 12.45230 29709 ft 475 kts 36°
2026-04-29 11:18 51.36180 12.49053 29308 ft 479 kts 38°
2026-04-29 11:19 51.38450 12.52979 28746 ft 482 kts 39°
2026-04-29 11:19 51.40716 12.56909 28061 ft 483 kts 39°
2026-04-29 11:19 51.42989 12.60825 27305 ft 485 kts 39°
2026-04-29 11:19 51.45229 12.64895 26506 ft 492 kts 45°
2026-04-29 11:20 51.47236 12.69398 25680 ft 499 kts 54°
2026-04-29 11:20 51.48899 12.74227 25073 ft 498 kts 62°
2026-04-29 11:20 51.50363 12.79197 24539 ft 493 kts 64°
2026-04-29 11:20 51.51763 12.84166 24004 ft 488 kts 65°
2026-04-29 11:21 51.53154 12.89073 23474 ft 484 kts 64°
2026-04-29 11:21 51.54573 12.93990 22937 ft 479 kts 64°
2026-04-29 11:21 51.55987 12.98757 22410 ft 474 kts 62°
2026-04-29 11:21 51.57572 13.03376 21899 ft 468 kts 57°
2026-04-29 11:22 51.59339 13.07672 21423 ft 461 kts 51°
2026-04-29 11:22 51.61245 13.11804 20968 ft 454 kts 50°
2026-04-29 11:22 51.63127 13.15764 20528 ft 448 kts 49°
2026-04-29 11:22 51.64997 13.19694 20087 ft 442 kts 49°
2026-04-29 11:23 51.66857 13.23625 19634 ft 437 kts 49°
2026-04-29 11:23 51.68667 13.27469 19167 ft 432 kts 50°
2026-04-29 11:23 51.70460 13.31299 18684 ft 429 kts 50°
2026-04-29 11:23 51.72201 13.35031 18205 ft 425 kts 50°
2026-04-29 11:24 51.73803 13.38476 17756 ft 422 kts 50°
2026-04-29 11:24 51.75542 13.42225 17266 ft 419 kts 51°
2026-04-29 11:24 51.77269 13.45953 16774 ft 416 kts 51°
2026-04-29 11:24 51.78990 13.49676 16280 ft 413 kts 51°
2026-04-29 11:25 51.80699 13.53377 15787 ft 410 kts 51°
2026-04-29 11:25 51.82374 13.57013 15301 ft 407 kts 51°
2026-04-29 11:25 51.84055 13.60666 14808 ft 403 kts 52°
2026-04-29 11:25 51.85713 13.64276 14319 ft 400 kts 52°
2026-04-29 11:26 51.88998 13.71437 13330 ft 392 kts 53°
2026-04-29 11:26 51.90792 13.74670 12802 ft 387 kts 36°
2026-04-29 11:26 51.93123 13.76527 12312 ft 377 kts 11°
2026-04-29 11:27 51.95610 13.76614 12198 ft 359 kts 346°
2026-04-29 11:27 51.97946 13.75330 12212 ft 355 kts 334°
2026-04-29 11:27 52.00196 13.73683 11849 ft 355 kts 333°
2026-04-29 11:27 52.02428 13.72035 11399 ft 351 kts 333°
2026-04-29 11:28 52.04546 13.70191 11186 ft 336 kts 325°
2026-04-29 11:28 52.06393 13.68017 11001 ft 322 kts 317°
2026-04-29 11:28 52.08034 13.65708 10835 ft 310 kts 315°
2026-04-29 11:28 52.09400 13.63127 10655 ft 294 kts 297°
2026-04-29 11:29 52.10096 13.60098 10505 ft 278 kts 278°
2026-04-29 11:29 52.10365 13.57012 10222 ft 273 kts 274°
2026-04-29 11:29 52.10567 13.53953 9847 ft 273 kts 273°
2026-04-29 11:29 52.10771 13.50882 9486 ft 273 kts 274°
2026-04-29 11:30 52.10984 13.47834 9138 ft 272 kts 274°
2026-04-29 11:30 52.11205 13.44808 8800 ft 270 kts 274°
2026-04-29 11:30 52.11428 13.41803 8576 ft 264 kts 274°
2026-04-29 11:30 52.11647 13.38891 8496 ft 252 kts 274°
2026-04-29 11:31 52.11883 13.36138 8411 ft 242 kts 280°
2026-04-29 11:31 52.12489 13.33624 8252 ft 240 kts 298°
2026-04-29 11:31 52.13440 13.31382 7957 ft 242 kts 304°
2026-04-29 11:31 52.14471 13.29206 7667 ft 242 kts 305°
2026-04-29 11:32 52.15506 13.27042 7388 ft 242 kts 305°
2026-04-29 11:32 52.16533 13.24856 7110 ft 242 kts 306°
2026-04-29 11:32 52.17538 13.22704 6842 ft 242 kts 305°
2026-04-29 11:32 52.18481 13.20451 6551 ft 239 kts 290°
2026-04-29 11:33 52.18679 13.17872 6448 ft 227 kts 254°
2026-04-29 11:33 52.18184 13.15466 6451 ft 224 kts 244°
2026-04-29 11:33 52.17574 13.13107 6452 ft 225 kts 243°
2026-04-29 11:33 52.16970 13.10764 6449 ft 225 kts 243°
2026-04-29 11:34 52.16378 13.08411 6446 ft 225 kts 244°
2026-04-29 11:34 52.15794 13.06049 6445 ft 225 kts 244°
2026-04-29 11:34 52.15215 13.03685 6446 ft 225 kts 244°
2026-04-29 11:34 52.14634 13.01295 6448 ft 225 kts 244°
2026-04-29 11:35 52.14061 12.98943 6445 ft 225 kts 244°
2026-04-29 11:35 52.13477 12.96547 6446 ft 226 kts 244°
2026-04-29 11:35 52.12896 12.94168 6447 ft 226 kts 244°
2026-04-29 11:35 52.12340 12.91881 6444 ft 226 kts 243°
2026-04-29 11:36 52.11814 12.89729 6438 ft 226 kts 243°
2026-04-29 11:36 52.11232 12.87353 6434 ft 226 kts 243°
2026-04-29 11:36 52.10651 12.84983 6430 ft 226 kts 243°
2026-04-29 11:36 52.10065 12.82592 6428 ft 226 kts 243°
2026-04-29 11:37 52.09484 12.80227 6426 ft 226 kts 243°
2026-04-29 11:37 52.08906 12.77872 6424 ft 226 kts 243°
2026-04-29 11:37 52.08317 12.75474 6424 ft 226 kts 243°
2026-04-29 11:37 52.07745 12.73106 6422 ft 227 kts 248°
2026-04-29 11:38 52.07633 12.70542 6412 ft 236 kts 281°
2026-04-29 11:38 52.08427 12.68195 6417 ft 240 kts 317°
2026-04-29 11:38 52.09833 12.66836 6429 ft 239 kts 340°
2026-04-29 11:38 52.11400 12.65973 6421 ft 237 kts 354°
2026-04-29 11:39 52.12969 12.66168 6418 ft 229 kts 26°
2026-04-29 11:39 52.14227 12.67618 6421 ft 219 kts 58°
2026-04-29 11:39 52.14834 12.69803 6422 ft 210 kts 86°
2026-04-29 11:39 52.14949 12.72131 6426 ft 208 kts 92°
2026-04-29 11:40 52.15036 12.74474 6423 ft 209 kts 86°
2026-04-29 11:40 52.15355 12.76800 6423 ft 212 kts 76°
2026-04-29 11:40 52.15868 12.79095 6423 ft 213 kts 73°
2026-04-29 11:40 52.16415 12.81342 6423 ft 214 kts 73°
2026-04-29 11:41 52.16965 12.83568 6423 ft 214 kts 73°
2026-04-29 11:41 52.17519 12.85817 6423 ft 214 kts 73°
2026-04-29 11:41 52.18090 12.88155 6419 ft 227 kts 73°
2026-04-29 11:41 52.18678 12.90567 6212 ft 228 kts 73°
2026-04-29 11:42 52.19187 12.92648 5954 ft 226 kts 72°
2026-04-29 11:42 52.19766 12.95019 5683 ft 223 kts 72°
2026-04-29 11:42 52.20334 12.97342 5440 ft 218 kts 72°
2026-04-29 11:42 52.20880 12.99587 5195 ft 214 kts 72°
2026-04-29 11:43 52.21425 13.01831 4947 ft 210 kts 72°
2026-04-29 11:43 52.21955 13.04024 4706 ft 207 kts 72°
2026-04-29 11:43 52.22487 13.06215 4488 ft 212 kts 72°
2026-04-29 11:43 52.23040 13.08511 4266 ft 218 kts 71°
2026-04-29 11:44 52.23591 13.10791 4022 ft 217 kts 71°
2026-04-29 11:44 52.24137 13.13059 3735 ft 215 kts 70°